TITAN 3C TRANSTAGE DEB, 59983

Orbit data source: Space-Track

TITAN 3C TRANSTAGE DEB, 59983 is space debris in GEO originally from a launch on Thu, 26 Sep 1968 UTC launched from the Air Force Eastern Test Range (AFETR). Debris objects in space refer to the collection of defunct objects orbiting the Earth. Examples of debris include non-operational satellites, rocket bodies, and fragments generated from explosions, collisions, or faulty payload assembly.

Not visible in the next 10 days
Identifier
59983, 1968-081AR
Orbit
GEO
Country
Flag of USUS
Related business
Manufacturer
Unknown
Mission
Spacecraft
Bus & Motor
Unknown
Mass
Unknown
Launch date (UTC)
1968-09-26 (57 years ago)
Launch vehicle
Unknown
Launch site
Air Force Eastern Test Range (AFETR)
Object type
Payload
Rocket body
Debris
Shape & HBR
Unknown shape, 1.1 m
Radar Cross Section
RCS unknown

Expand to show TLE details & history
Last TLE update: 1 day ago

TLE from 1 day ago
0 TITAN 3C TRANSTAGE DEB
1 59983U 68081AR  25291.83663537 -.00000374  00000-0  00000-0 0  9992
2 59983   2.1658  56.9113 0199951  19.9592 340.9803  1.02076185  5497
Epoch: 2025-10-18T20:04Z
TLE epoch observation values (Epoch: 2025-10-18T20:04:45.295Z)
Latitude
-0.00001°
Longitude
88.32361°
Altitude
34,502.292 km
Speed
3.152 km/s
True Right ascension
03h 48m 17s
True Declination
0° 00' 00"
Sunlit
Object was in daylight at epoch
Visualization orbit readout
Latitude
Unknown
Longitude
Unknown
Altitude
Unknown
Speed
Unknown
Apparent Right ascension
Unknown
Apparent Declination
Unknown
Sunlit
N/A
Visualization observer readout
Local Sidereal Time
20:06:47
Azimuth
Unknown
Elevation
Unknown
Doppler factor
Unknown
Orbital elements
Apogee altitude
36,122.448 km
Perigee altitude
34,456.159 km
Semi-major axis
41,667.44 km
Eccentricity
0.02
Inclination
2.1658°
RAAN
56.9113°
Arg. of periapsis
19.9592°
True anomaly
340.21556°
Mean anomaly
340.9803°
Eccentric anomaly
340.59976°
Mean motion
0.25518 °/min
Orbital period
1,410.76 mins
BSTAR
0
Loading maneuver chart data...
Computing Atmospheric mass density...

Documentation

Showing up to 5 results
|